Torna al catalogo

STARLINK-31112

AttivoComunicazioniVLEO
NORAD 58680·PAYLOAD·🇺🇸 United States

Lanciato Dec 29, 2023 da Cape Canaveral Space Force Station

Loading…

Prossimi Passaggi (prossime 24 ore)

TLE

AggiornatoSource: CelesTrak SupGP

Epoca: Sep 14, 2026, 22:27 UTC

1 58680C 23211P   26257.93590278  .00028426  00000+0  10303-2 0  2578
2 58680  42.9999  96.4512 0001389 269.4078 250.9202 15.27542292    15

Traccia STARLINK-31112 in tempo reale con AllMySat

Download on the App Store